FENGYUN 1C DEB, 29923

Orbit data source: Space-Track

FENGYUN 1C DEB, 29923 is space debris in SSO originally from a launch on Mon, 10 May 1999 UTC launched from the Taiyaun Space Center, China (TSC). Fengyun 1C debris stems from the Chinese weather satellite Fengyun-1C, which was intentionally destroyed by a Chinese anti-satellite missile in 2007. This event dramatically increased the amount of space debris, with thousands of trackable fragments posing hazards to satellites and human spaceflight. The Fengyun 1C debris cloud has become a focal point in discussions about space sustainability and the need for international regulations to prevent the creation of new debris.

Loading next visibility...
Identifier
29923, 1999-025HV
Orbit
SSO
Country
Flag of CNCN / PRC
Related business
Manufacturer
Unknown
Mission
Spacecraft
Bus & Motor
Unknown
Mass
Unknown
Launch date (UTC)
1999-05-10 (27 years ago)
Launch vehicle
Unknown
Launch site
Taiyaun Space Center, China (TSC)
Object type
Payload
Rocket body
Debris
Shape & HBR
Unknown shape, 0.1 m
Radar Cross Section
Medium (>0.1 m² and <1 m²)

Expand to show TLE details & history
Last TLE update: 1 day ago

TLE from 1 day ago
0 FENGYUN 1C DEB
1 29923U 99025HV  26207.01046322  .00000690  00000-0  38301-3 0  9998
2 29923  98.6854 214.0611 0015888 247.7682 138.7048 14.14295541  4571
Epoch: 2026-07-26T00:15Z
TLE epoch observation values (Epoch: 2026-07-26T00:15:04.022Z)
Latitude
26.29982°
Longitude
-97.72718°
Altitude
856.53 km
Speed
7.422 km/s
True Right ascension
13h 59m 00s
True Declination
26° 09' 55"
Sunlit
Object was in daylight at epoch
Visualization orbit readout
Latitude
Unknown
Longitude
Unknown
Altitude
Unknown
Speed
Unknown
Apparent Right ascension
Unknown
Apparent Declination
Unknown
Sunlit
N/A
Visualization observer readout
Local Sidereal Time
21:03:55
Azimuth
Unknown
Elevation
Unknown
Doppler factor
Unknown
Orbital elements
Apogee altitude
853.346 km
Perigee altitude
830.404 km
Semi-major axis
7,220.012 km
Eccentricity
0.00159
Inclination
98.6854°
RAAN
214.0611°
Arg. of periapsis
247.7682°
True anomaly
138.82477°
Mean anomaly
138.7048°
Eccentric anomaly
138.7648°
Mean motion
3.53782 °/min
Orbital period
101.76 mins
BSTAR
0.00038301
Loading maneuver chart data...
Computing Atmospheric mass density...
Loading historical data...
Loading historical data...
Loading historical data...
Loading historical data...
Loading historical data...
Loading historical data...
Loading historical data...

Documentation

Showing up to 5 results
|